Estación de San Fernando

Ultimos registro cada 15 minutos 46
Estación Fecha / Hora Temperatura Humedad Lluvia Velocidad Dirección Radiación Presion
46 San Fernando 04-05-2026 11:15 14,1 70 0 0,4 214 91 1015,8
45 San Fernando 04-05-2026 11:00 14 70 0 0 235 104 1015,7
44 San Fernando 04-05-2026 10:45 13,8 71 0 0,4 204 98 1015,8
43 San Fernando 04-05-2026 10:30 13,5 71 0 0,4 226 95 1015,9
42 San Fernando 04-05-2026 10:15 13,2 72 0 0 152 95 1015,8
41 San Fernando 04-05-2026 10:00 12,7 73 0 0 152 105 1015,6
40 San Fernando 04-05-2026 09:45 12,3 79 0 0 152 93 1015,4
39 San Fernando 04-05-2026 09:30 12 78 0 0 152 69 1015,2
38 San Fernando 04-05-2026 09:15 11,8 80 0 0 152 53 1015,2
37 San Fernando 04-05-2026 09:00 11,6 79 0 0 152 42 1015
36 San Fernando 04-05-2026 08:45 11,4 80 0 0 152 39 1015,1
35 San Fernando 04-05-2026 08:30 11,3 77 0 0 152 28 1015,2
34 San Fernando 04-05-2026 08:15 11 75 0 0 152 21 1015,3
33 San Fernando 04-05-2026 08:00 10,8 77 0 0 152 14 1015,2
32 San Fernando 04-05-2026 07:45 10,6 78 0 0 152 7 1015,1
31 San Fernando 04-05-2026 07:30 10,5 79 0 0 152 0 1015,1
30 San Fernando 04-05-2026 07:15 10,4 77 0 0 152 0 1015
29 San Fernando 04-05-2026 07:00 10,4 78 0 0 152 0 1014,9
28 San Fernando 04-05-2026 06:45 10,6 79 0 0 152 0 1014,8
27 San Fernando 04-05-2026 06:30 10,6 76 0 0 152 0 1014,6
26 San Fernando 04-05-2026 06:15 10,8 75 0 0 152 0 1014,4
25 San Fernando 04-05-2026 06:00 10,7 77 0 0 173 0 1014,4
24 San Fernando 04-05-2026 05:45 10,6 77 0 0 173 0 1014,4
23 San Fernando 04-05-2026 05:30 10,6 77 0 0 173 0 1014,5
22 San Fernando 04-05-2026 05:15 10,7 78 0 0 173 0 1014,4
21 San Fernando 04-05-2026 05:00 10,9 78 0 0 173 0 1014,4
20 San Fernando 04-05-2026 04:45 11,1 76 0 0 173 0 1014,5
19 San Fernando 04-05-2026 04:30 11,1 78 0 0 173 0 1014,5
18 San Fernando 04-05-2026 04:15 11,3 76 0 0 173 0 1014,5
17 San Fernando 04-05-2026 04:00 11,4 74 0 0 173 0 1014,6
16 San Fernando 04-05-2026 03:45 11,4 74 0 0 173 0 1014,6
15 San Fernando 04-05-2026 03:30 11,3 75 0 0 173 0 1014,7
14 San Fernando 04-05-2026 03:15 11,4 77 0 0 173 0 1014,9
13 San Fernando 04-05-2026 03:00 11,4 77 0 0 173 0 1015
12 San Fernando 04-05-2026 02:45 11,4 77 0 0 70 0 1015,2
11 San Fernando 04-05-2026 02:30 11,5 77 0 0 70 0 1015,3
10 San Fernando 04-05-2026 02:15 11,6 77 0 0 70 0 1015,4
9 San Fernando 04-05-2026 02:00 11,6 78 0 0,4 70 0 1015,4
8 San Fernando 04-05-2026 01:45 11,8 77 0 0 70 0 1015,5
7 San Fernando 04-05-2026 01:30 11,9 75 0 0 70 0 1015,5
6 San Fernando 04-05-2026 01:15 12,4 72 0 1,3 63 0 1015,6
5 San Fernando 04-05-2026 01:00 12,6 69 0 0 236 0 1016
4 San Fernando 04-05-2026 00:45 12,4 70 0 0 236 0 1016
3 San Fernando 04-05-2026 00:30 12,4 72 0 0 236 0 1016,5
2 San Fernando 04-05-2026 00:15 12,6 72 0 0 236 0 1016,8
1 San Fernando 04-05-2026 00:00 12,8 71 0 0 236 0 1016,8